Вернуться в каталог

SL-16 DEB

АктивенLEO
NORAD 39719·DEBRIS·🇷🇺 Russia

Запущен Dec 25, 1992 с Baikonur Cosmodrome

Loading…

Ближайшие Пролёты (ближайшие 24 часа)

TLE

УстаревающийSource: Space-Track

Эпоха: Sep 10, 2026, 04:33 UTC

1 39719U 92093KK  26253.18987563  .00000039  00000-0  57209-4 0  9996
2 39719  71.2969  73.2722 0095596 112.5640   4.0370 13.96282833631707

Отслеживайте SL-16 DEB в реальном времени с AllMySat

Download on the App Store